• Join FlightAware (Why Join?)
  • Login
  • US Flag 
09:24PM EDT


 

Airport Tracker/Info


-or-


 

Live Flight TrackerFlight Track Log ✈ CHQ3046 ✈ 27-Apr-2013 ✈ KDCA - KISP

Flight Track Log - Related Links

Times and Time Zones

All times are in EDT time to prevent confusion due to time zone crossing. See the CHQ3046 flight status page for this flight to view local times or setup timezone preferences in your user account.

Time Position Orientation Groundspeed Altitude Reporting Facility
EDT Latitude Longitude Course Direction KTS MPH feet Rate Location/Type
09:17PM 38.7833 -77.0333 76° East 186 214 3,100  Level Potomac TRACON
09:18PM 38.7167 -77.0167 169° South 245 282 5,000 2,160 Climbing Potomac TRACON
09:19PM 38.9176 -76.7297 72° East  Level FlightAware Approximate
09:19PM 38.7333 -76.9333 76° East 265 305 7,500  Level Potomac TRACON
09:20PM 38.9503 -76.6325 67° East  Level FlightAware Approximate
09:20PM 38.7667 -76.8500 63° Northeast 269 310 9,700  Level Potomac TRACON
09:21PM 38.9794 -76.5325 72° East  Level FlightAware Approximate
09:22PM 39.0039 -76.4305 76° East  Level FlightAware Approximate
09:22PM 38.8436 -76.7031 56° Northeast 311 358 12,400  Level Washington Center
09:23PM 38.8944 -76.6053 56° Northeast 316 364 13,700 1,500 Climbing Washington Center
09:24PM 38.9244 -76.4961 71° East 316 364 15,500 1,500 Climbing Washington Center
09:25PM 38.9378 -76.3736 82° East 321 369 16,700 1,260 Climbing Washington Center
09:26PM 38.9492 -76.2483 83° East 335 386 18,100 1,080 Climbing Washington Center
09:27PM 38.9664 -76.1361 79° East 355 409 18,900 420 Climbing Washington Center
09:28PM 38.9794 -75.9975 83° East 368 423 19,000  Climbing Washington Center
09:29PM 38.9944 -75.8586 82° East 381 438 19,000  Level Washington Center
09:30PM 39.0069 -75.7119 84° East 393 452 19,000  Level Washington Center
09:31PM 39.0217 -75.5703 82° East 398 458 19,000  Level Washington Center
09:32PM 39.0361 -75.4286 82° East 398 458 19,000  Level Washington Center
09:33PM 39.0567 -75.2894 79° East 398 458 19,000  Level Washington Center
09:34PM 39.1083 -75.1636 62° Northeast 387 445 19,000  Level Washington Center
09:35PM 39.1581 -75.0428 62° Northeast 387 445 19,000  Level Washington Center
09:36PM 39.2072 -74.9192 63° Northeast 382 440 19,000  Level Washington Center
09:37PM 39.2586 -74.7956 62° Northeast 382 440 19,000  Level Washington Center
09:39PM 39.3431 -74.5881 62° Northeast 382 440 19,000  Level New York Center
09:40PM 39.3928 -74.4644 62° Northeast 382 440 19,000  Level New York Center
09:41PM 39.4425 -74.3436 62° Northeast 382 440 19,000  Level New York Center
09:42PM 39.4875 -74.2300 63° Northeast 382 440 19,000  Level New York Center
09:43PM 39.5475 -74.1039 58° Northeast 377 434 19,000  Level New York Center
09:45PM 39.7050 -73.8881 46° Northeast 373 429 19,000  Level Boston Center
09:46PM 39.7792 -73.7897 46° Northeast 373 429 19,000  Level Boston Center
09:47PM 39.8511 -73.6939 46° Northeast 373 429 19,000 -420 Level Boston Center
09:48PM 39.9272 -73.5953 45° Northeast 373 429 18,200 -1,260 Descending Boston Center
09:49PM 40.0094 -73.4939 43° Northeast 373 429 16,300 -1,800 Descending Boston Center
09:50PM 40.0747 -73.4028 47° Northeast 363 418 14,300 -2,040 Descending Boston Center
09:51PM 40.1358 -73.3222 45° Northeast 331 381 12,300 -1,920 Descending Boston Center
09:52PM 40.1947 -73.2469 44° Northeast 304 350 10,500 -1,500 Descending Boston Center
09:53PM 40.2433 -73.1794 47° Northeast 272 313 9,400 -780 Descending Boston Center
09:54PM 40.2917 -73.1147 46° Northeast 255 293 9,000 -480 Descending Boston Center
09:56PM 40.4000 -73.0167 35° Northeast 244 281 8,100 -960 Descending New York TRACON
09:57PM 40.4667 -73.0000 11° North 230 265 6,400 -1,860 Descending New York TRACON
09:58PM 40.5167 -73.0167 346° North 233 268 4,600 -1,200 Descending New York TRACON
09:59PM 40.5833 -73.0167 360° North 237 273 4,000 -900 Descending New York TRACON
10:00PM 40.6500 -73.0167 360° North 237 273 2,800 -1,200 Descending New York TRACON